{"data":{"norad_id":57108,"intl_designator":"2023-090H","name":"STARLINK-6099","alt_names":[],"object_type":"PAYLOAD","status":"ACTIVE","operator":null,"country":"US","launch_date":"2023-06-23","launch_site_code":"AFETR","launch_vehicle":null,"mission":null,"orbit_class":"UNKNOWN","rcs_meters":null,"size_class":null,"mass_kg":null,"dimensions":null,"purposes":["comms"],"wikipedia_slug":null,"has_3d_model":false,"image_url":null,"decayed_at":null,"tle_current":{"epoch":"2026-09-20T11:36:37.301184Z","epoch_age_seconds":122406,"freshness":"FRESH","line1":"1 57108U 23090H   26263.48376506 -.00000045  00000+0  78690-5 0  9997","line2":"2 57108  43.0008 261.4621 0000942 266.4115  93.6629 15.27577438180126","mean_motion":15.27577438,"eccentricity":9.42e-5,"inclination_deg":43.0008,"raan_deg":261.4621,"arg_perigee_deg":266.4115,"mean_anomaly_deg":93.6629,"bstar":7.869e-6,"rev_number":18012,"period_min":94.266906814579,"perigee_km":482.41044314714,"apogee_km":483.70309205296,"semimajor_km":6861.1937676,"source":"CELESTRAK","updated_at":"2026-09-21T09:00:33.559361Z"}}}